KE5YIM-13 Weather Reports


time (UTC)temp
C
wind
direction
speed
KPH
gust
KPH
rain 1hr
cm
rain 24hr
cm
rain mn
cm
humidity
%
barometer
mb
20260504180040 20 287 8.0 20.9 0.00 0.00 0.00 38 1011.3
20260504175536 20 275 8.0 16.1 0.00 0.00 0.00 38 1011.5
20260504175033 19 213 8.0 12.9 0.00 0.00 0.00 37 1011.7
20260504174531 19 215 8.0 22.5 0.00 0.00 0.00 38 1011.8
20260504174028 20 244 12.9 17.7 0.00 0.00 0.00 37 1011.8
20260504173525 19 313 8.0 11.3 0.00 0.00 0.00 40 1011.8
20260504173022 20 271 17.7 32.2 0.00 0.00 0.00 37 1011.8
20260504172518 19 256 12.9 17.7 0.00 0.00 0.00 38 1011.8
20260504172015 19 163 6.4 17.7 0.00 0.00 0.00 38 1011.7
20260504171512 19 212 11.3 22.5 0.00 0.00 0.00 37 1012.0
20260504171009 19 206 8.0 20.9 0.00 0.00 0.00 38 1011.9
20260504170504 19 268 14.5 24.1 0.00 0.00 0.00 38 1012.0
20260504160425 18 179 8.0 14.5 0.00 0.00 0.00 40 1012.6
20260504150848 17 110 6.4 17.7 0.00 0.00 0.00 40 1013.2
20260504150345 17 212 11.3 24.1 0.00 0.00 0.00 43 1013.4
20260504141315 16 208 8.0 12.9 0.00 0.00 0.00 44 1013.7
20260504140812 16 212 8.0 17.7 0.00 0.00 0.00 42 1013.5
20260504140307 16 259 8.0 14.5 0.00 0.00 0.00 42 1013.7
20260504130736 15 283 8.0 12.9 0.00 0.00 0.00 42 1014.4
20260504130232 15 234 4.8 8.0 0.00 0.00 0.00 47 1014.4
20260504120156 11 127 4.8 8.0 0.00 0.00 0.00 58 1014.6
20260504110623 2 70 0.0 0.0 0.00 0.00 0.00 98 1014.7
20260504110119 1 69 0.0 0.0 0.00 0.00 0.00 98 1014.7
20260504100545 0 69 0.0 0.0 0.00 0.00 0.00 97 1014.3
20260504081939 0 69 0.0 0.0 0.00 0.00 0.00 95 1013.6
20260504081436 1 69 0.0 0.0 0.00 0.00 0.00 95 1013.6
20260504080931 1 69 0.0 0.0 0.00 0.00 0.00 95 1013.6
20260504080428 1 69 0.0 0.0 0.00 0.00 0.00 95 1013.6
20260504070356 1 70 0.0 0.0 0.00 0.00 0.00 94 1013.3
20260504050743 2 70 0.0 0.0 0.00 0.00 0.00 89 1013.1
20260504050241 2 71 0.0 0.0 0.00 0.00 0.00 89 1013.2
20260504045738 2 71 0.0 0.0 0.00 0.00 0.00 89 1013.2
20260504045233 2 71 0.0 0.0 0.00 0.00 0.00 88 1013.3
20260504044731 2 71 0.0 0.0 0.00 0.00 0.00 88 1013.1
20260504044228 2 71 0.0 0.0 0.00 0.00 0.00 87 1013.2
20260504043725 2 71 0.0 0.0 0.00 0.00 0.00 87 1013.3
20260504043222 2 70 0.0 0.0 0.00 0.00 0.00 87 1013.1
20260504042719 2 71 0.0 0.0 0.00 0.00 0.00 87 1013.2
20260504042216 3 71 0.0 0.0 0.00 0.00 0.00 86 1013.3
20260504041712 3 71 0.0 0.0 0.00 0.00 0.00 86 1013.2
20260504041207 3 71 0.0 0.0 0.00 0.00 0.00 86 1013.0
20260504040704 3 71 0.0 0.0 0.00 0.00 0.00 86 1012.9
20260504040202 3 71 0.0 0.0 0.00 0.00 0.00 86 1013.0
20260504035658 3 71 0.0 0.0 0.00 0.00 0.00 86 1012.9
20260504035155 3 71 0.0 0.0 0.00 0.00 0.00 85 1012.9
20260504034652 3 71 0.0 0.0 0.00 0.00 0.00 85 1013.1
20260504034149 3 71 0.0 0.0 0.00 0.00 0.00 85 1012.9
20260504033647 3 71 0.0 0.0 0.00 0.00 0.00 84 1012.9
20260504033144 3 71 0.0 0.0 0.00 0.00 0.00 84 1012.9
20260504032641 3 71 0.0 0.0 0.00 0.00 0.00 84 1013.0
20260504032138 3 71 0.0 1.6 0.00 0.00 0.00 84 1012.7
20260504031635 4 75 0.0 0.0 0.00 0.00 0.00 85 1012.9
20260504031131 3 76 0.0 0.0 0.00 0.00 0.00 84 1012.7
20260504030628 3 76 0.0 0.0 0.00 0.00 0.00 83 1012.9
20260504030125 4 76 0.0 0.0 0.00 0.00 0.00 83 1012.7
20260504025622 4 76 0.0 0.0 0.00 0.00 0.00 83 1012.8
20260504025119 4 76 0.0 0.0 0.00 0.00 0.00 83 1012.8
20260504024616 4 76 0.0 0.0 0.00 0.00 0.00 82 1012.9
20260504024112 5 76 0.0 0.0 0.00 0.00 0.00 82 1013.0
20260504023609 5 76 0.0 0.0 0.00 0.00 0.00 81 1013.0
20260504023105 5 76 0.0 0.0 0.00 0.00 0.00 80 1013.0
20260504022601 5 76 0.0 0.0 0.00 0.00 0.00 79 1012.7
20260504022057 5 76 0.0 0.0 0.00 0.00 0.00 78 1012.9
20260504021555 5 76 0.0 0.0 0.00 0.00 0.00 77 1012.8
20260504021052 5 76 0.0 0.0 0.00 0.00 0.00 75 1013.0
20260504020549 5 76 0.0 0.0 0.00 0.00 0.00 74 1012.8
20260504020045 6 76 0.0 0.0 0.00 0.00 0.00 74 1012.9
20260504015542 6 76 0.0 0.0 0.00 0.00 0.00 73 1012.7
20260504015038 6 76 0.0 0.0 0.00 0.00 0.00 73 1012.8
20260504014534 6 76 0.0 0.0 0.00 0.00 0.00 72 1012.7
20260504014031 6 76 0.0 0.0 0.00 0.00 0.00 71 1012.8
20260504013529 6 76 0.0 0.0 0.00 0.00 0.00 69 1012.7
20260504013026 7 76 0.0 0.0 0.00 0.00 0.00 69 1012.8
20260504012524 7 76 0.0 0.0 0.00 0.00 0.00 67 1012.6
20260504012021 7 76 0.0 0.0 0.00 0.00 0.00 67 1012.5
20260504011517 7 76 0.0 0.0 0.00 0.00 0.00 65 1012.3
20260504011014 7 76 0.0 0.0 0.00 0.00 0.00 63 1012.3
20260504010509 8 76 0.0 0.0 0.00 0.00 0.00 61 1012.2
20260504010005 8 76 0.0 0.0 0.00 0.00 0.00 60 1012.2
20260504005502 8 76 0.0 0.0 0.00 0.00 0.00 59 1012.1
20260504005000 8 76 0.0 0.0 0.00 0.00 0.00 58 1012.0
20260504004457 8 76 0.0 0.0 0.00 0.00 0.00 58 1011.9
20260504003954 8 76 0.0 0.0 0.00 0.00 0.00 58 1011.9
20260504003450 8 76 0.0 0.0 0.00 0.00 0.00 57 1011.7
20260504002947 8 76 0.0 0.0 0.00 0.00 0.00 55 1011.7
20260504002444 9 76 0.0 0.0 0.00 0.00 0.00 54 1011.5
20260504001942 9 76 0.0 0.0 0.00 0.00 0.00 52 1011.5
20260504001439 9 76 0.0 0.0 0.00 0.00 0.00 51 1011.6
20260504000936 9 76 0.0 1.6 0.00 0.00 0.00 48 1011.5
20260504000433 10 76 0.0 0.0 0.00 0.00 0.00 48 1011.4
20260503235930 10 76 0.0 0.0 0.00 0.00 0.00 45 1011.2
20260503235428 10 76 0.0 0.0 0.00 0.00 0.00 45 1011.3
20260503234925 10 76 0.0 1.6 0.00 0.00 0.00 44 1011.2
20260503234422 11 76 0.0 0.0 0.00 0.00 0.00 42 1011.3
20260503233920 11 76 0.0 1.6 0.00 0.00 0.00 40 1011.1
20260503233416 12 76 1.6 1.6 0.00 0.00 0.00 41 1011.0
20260503232913 12 59 0.0 1.6 0.00 0.00 0.00 36 1011.0
20260503232410 12 74 0.0 0.0 0.00 0.00 0.00 37 1011.1
20260503231908 12 74 0.0 1.6 0.00 0.00 0.00 35 1010.9
20260503231405 13 97 0.0 3.2 0.00 0.00 0.00 33 1010.9
20260503230901 13 76 0.0 3.2 0.00 0.00 0.00 36 1010.9
20260503230358 13 76 0.0 1.6 0.00 0.00 0.00 34 1010.9
20260503225855 13 300 6.4 8.0 0.00 0.00 0.00 32 1010.8
20260503225351 13 40 3.2 8.0 0.00 0.00 0.00 33 1010.6
20260503224848 13 354 3.2 4.8 0.00 0.00 0.00 34 1010.6
20260503224345 13 80 1.6 1.6 0.00 0.00 0.00 34 1010.7
20260503223843 13 31 1.6 3.2 0.00 0.00 0.00 33 1010.6
20260503223340 13 71 3.2 4.8 0.00 0.00 0.00 32 1010.8
20260503222836 13 2 6.4 11.3 0.00 0.00 0.00 32 1010.6
20260503222335 13 23 6.4 11.3 0.00 0.00 0.00 33 1010.5
20260503221832 14 69 1.6 3.2 0.00 0.00 0.00 34 1010.5
20260503221331 14 350 1.6 4.8 0.00 0.00 0.00 36 1010.4
20260503220826 14 73 1.6 3.2 0.00 0.00 0.00 34 1010.6
20260503220323 14 90 4.8 4.8 0.00 0.00 0.00 34 1010.6
20260503215820 14 47 1.6 4.8 0.00 0.00 0.00 36 1010.5
20260503215317 13 74 4.8 9.7 0.00 0.00 0.00 35 1010.5
20260503214815 13 11 6.4 11.3 0.00 0.00 0.00 34 1010.5
20260503214312 14 90 4.8 12.9 0.00 0.00 0.00 34 1010.7
20260503213809 14 113 1.6 12.9 0.00 0.00 0.00 34 1010.6
20260503213307 14 49 3.2 3.2 0.00 0.00 0.00 34 1010.4
20260503212803 13 42 8.0 12.9 0.00 0.00 0.00 33 1010.5
20260503212301 13 353 3.2 11.3 0.00 0.00 0.00 35 1010.5
20260503211759 13 320 8.0 14.5 0.00 0.00 0.00 36 1010.6
20260503211255 13 86 3.2 11.3 0.00 0.00 0.00 36 1010.6
20260503210755 13 75 1.6 4.8 0.00 0.00 0.00 37 1010.5
20260503210253 13 16 8.0 14.5 0.00 0.00 0.00 34 1010.7
20260503205748 14 322 3.2 8.0 0.00 0.00 0.00 33 1010.5
20260503205245 14 251 12.9 20.9 0.00 0.00 0.00 35 1010.5
20260503204741 14 325 8.0 24.1 0.00 0.00 0.00 34 1010.5
20260503204239 14 41 3.2 9.7 0.00 0.00 0.00 33 1010.7
20260503203736 14 51 3.2 9.7 0.00 0.00 0.00 34 1010.5
20260503203233 14 40 3.2 9.7 0.00 0.00 0.00 38 1010.5
20260503202730 14 87 6.4 11.3 0.00 0.00 0.00 35 1010.6
20260503202228 14 3 3.2 8.0 0.00 0.00 0.00 36 1010.6
20260503201726 13 248 11.3 17.7 0.00 0.00 0.00 35 1010.4
20260503201223 13 338 8.0 11.3 0.00 0.00 0.00 37 1010.4
20260503200719 12 333 4.8 12.9 0.00 0.00 0.00 37 1010.8
20260503200216 13 347 3.2 27.4 0.00 0.00 0.00 36 1010.8
20260503195713 13 314 3.2 8.0 0.00 0.00 0.00 39 1010.7
20260503195210 13 75 8.0 9.7 0.00 0.00 0.00 36 1010.5
20260503194707 13 297 1.6 16.1 0.00 0.00 0.00 37 1010.7
20260503194202 13 106 8.0 11.3 0.00 0.00 0.00 36 1010.7
20260503193659 13 327 6.4 14.5 0.00 0.00 0.00 37 1010.8
20260503193155 13 301 3.2 12.9 0.00 0.00 0.00 36 1010.7
20260503192651 12 285 6.4 12.9 0.00 0.00 0.00 36 1010.8
20260503192146 13 286 4.8 17.7 0.00 0.00 0.00 36 1010.6
20260503191643 13 58 3.2 24.1 0.00 0.00 0.00 35 1010.9
20260503191140 13 37 17.7 24.1 0.00 0.00 0.00 34 1010.6
20260503190637 13 357 17.7 22.5 0.00 0.00 0.00 34 1010.7
20260503190134 13 291 16.1 25.7 0.00 0.00 0.00 36 1010.6
20260503185631 13 148 1.6 14.5 0.00 0.00 0.00 38 1010.6
20260503185126 13 30 4.8 14.5 0.00 0.00 0.00 37 1010.5
20260503184621 13 341 4.8 11.3 0.00 0.00 0.00 37 1010.7
20260503184118 13 242 8.0 14.5 0.00 0.00 0.00 36 1010.7
20260503183615 13 12 4.8 12.9 0.00 0.00 0.00 36 1010.6
20260503183112 13 240 4.8 9.7 0.00 0.00 0.00 35 1010.8
20260503182610 13 90 1.6 3.2 0.00 0.00 0.00 41 1010.5
20260503182108 12 67 4.8 12.9 0.00 0.00 0.00 37 1010.7
20260503181605 13 294 11.3 14.5 0.00 0.00 0.00 34 1010.6
20260503181101 13 59 3.2 12.9 0.00 0.00 0.00 40 1010.4
20260503180559 12 66 8.0 11.3 0.00 0.00 0.00 36 1010.8
20260503180056 12 70 6.4 17.7 0.00 0.00 0.00 37 1010.6